Time,TemperatureF,DewpointF,PressureIn,WindDirection,WindDirectionDegrees,WindSpeedMPH,WindSpeedGustMPH,Humidity,HourlyPrecipIn,Conditions,Clouds,dailyrainin,SoftwareType,DateUTC
2013-05-27 00:12:00,43.5,40.0,30.11,WNW,289,0.0,0.0,87,0.00,,,0.00,weatherlink.com 1.10,2013-05-27 04:12:00,
2013-05-27 00:27:00,43.3,40.0,30.11,WNW,290,0.0,0.0,87,0.00,,,0.00,weatherlink.com 1.10,2013-05-27 04:27:00,
2013-05-27 00:42:00,43.1,40.0,30.12,West,274,0.0,0.0,88,0.00,,,0.00,weatherlink.com 1.10,2013-05-27 04:42:00,
2013-05-27 00:57:00,42.8,40.0,30.12,West,274,0.0,0.0,88,0.00,,,0.00,weatherlink.com 1.10,2013-05-27 04:57:00,
2013-05-27 01:12:00,42.6,40.0,30.12,West,274,0.0,0.0,89,0.00,,,0.00,weatherlink.com 1.10,2013-05-27 05:12:00,
2013-05-27 01:27:00,42.5,40.0,30.12,West,274,0.0,0.0,90,0.00,,,0.00,weatherlink.com 1.10,2013-05-27 05:27:00,
2013-05-27 01:42:00,42.2,40.0,30.12,West,274,0.0,0.0,90,0.00,,,0.00,weatherlink.com 1.10,2013-05-27 05:42:00,
2013-05-27 01:57:00,41.9,40.0,30.12,West,274,0.0,0.0,91,0.00,,,0.00,weatherlink.com 1.10,2013-05-27 05:57:00,
2013-05-27 02:12:00,41.6,39.0,30.12,West,274,0.0,0.0,91,0.00,,,0.00,weatherlink.com 1.10,2013-05-27 06:12:00,
2013-05-27 02:27:00,41.3,39.0,30.12,West,274,0.0,0.0,92,0.00,,,0.00,weatherlink.com 1.10,2013-05-27 06:27:00,
2013-05-27 02:42:00,40.9,39.0,30.12,West,274,0.0,0.0,93,0.00,,,0.00,weatherlink.com 1.10,2013-05-27 06:42:00,
2013-05-27 02:57:00,40.7,39.0,30.11,West,274,0.0,0.0,93,0.00,,,0.00,weatherlink.com 1.10,2013-05-27 06:57:00,
2013-05-27 03:12:00,40.5,39.0,30.11,West,274,0.0,0.0,93,0.00,,,0.00,weatherlink.com 1.10,2013-05-27 07:12:00,
2013-05-27 03:27:00,40.3,39.0,30.11,West,274,0.0,0.0,94,0.00,,,0.00,weatherlink.com 1.10,2013-05-27 07:27:00,
2013-05-27 03:42:00,40.4,39.0,30.11,West,274,0.0,0.0,94,0.00,,,0.00,weatherlink.com 1.10,2013-05-27 07:42:00,
2013-05-27 03:57:00,40.5,39.0,30.11,West,274,0.0,0.0,95,0.00,,,0.00,weatherlink.com 1.10,2013-05-27 07:57:00,
2013-05-27 04:12:00,40.8,40.0,30.11,West,274,0.0,0.0,95,0.00,,,0.00,weatherlink.com 1.10,2013-05-27 08:12:00,
2013-05-27 04:27:00,40.8,40.0,30.11,West,274,0.0,0.0,95,0.00,,,0.00,weatherlink.com 1.10,2013-05-27 08:27:00,
2013-05-27 04:42:00,41.0,40.0,30.11,West,274,0.0,0.0,95,0.00,,,0.00,weatherlink.com 1.10,2013-05-27 08:42:00,
2013-05-27 04:57:00,40.9,40.0,30.11,West,274,0.0,0.0,95,0.00,,,0.00,weatherlink.com 1.10,2013-05-27 08:57:00,
2013-05-27 05:12:00,40.8,40.0,30.11,West,274,0.0,0.0,95,0.00,,,0.00,weatherlink.com 1.10,2013-05-27 09:12:00,
2013-05-27 05:27:00,40.7,39.0,30.12,West,274,0.0,0.0,95,0.00,,,0.00,weatherlink.com 1.10,2013-05-27 09:27:00,
2013-05-27 05:42:00,40.6,39.0,30.12,West,274,0.0,0.0,95,0.00,,,0.00,weatherlink.com 1.10,2013-05-27 09:42:00,
2013-05-27 05:57:00,40.7,39.0,30.12,West,274,0.0,0.0,95,0.00,,,0.00,weatherlink.com 1.10,2013-05-27 09:57:00,
2013-05-27 06:12:00,41.1,40.0,30.12,West,274,0.0,0.0,95,0.00,,,0.00,weatherlink.com 1.10,2013-05-27 10:12:00,
2013-05-27 06:27:00,41.7,40.0,30.13,West,274,0.0,0.0,95,0.00,,,0.00,weatherlink.com 1.10,2013-05-27 10:27:00,
2013-05-27 06:42:00,42.8,42.0,30.13,West,274,0.0,0.0,95,0.00,,,0.00,weatherlink.com 1.10,2013-05-27 10:42:00,
2013-05-27 06:57:00,44.2,43.0,30.13,West,274,0.0,0.0,94,0.00,,,0.00,weatherlink.com 1.10,2013-05-27 10:57:00,
2013-05-27 07:12:00,47.5,43.0,30.13,WNW,284,0.0,0.0,83,0.00,,,0.00,weatherlink.com 1.10,2013-05-27 11:12:00,
2013-05-27 07:27:00,50.1,42.0,30.13,NW,305,0.0,2.0,75,0.00,,,0.00,weatherlink.com 1.10,2013-05-27 11:27:00,
2013-05-27 07:42:00,52.1,43.0,30.13,NW,319,0.0,4.0,70,0.00,,,0.00,weatherlink.com 1.10,2013-05-27 11:42:00,
2013-05-27 07:57:00,53.5,43.0,30.13,North,359,0.0,2.0,67,0.00,,,0.00,weatherlink.com 1.10,2013-05-27 11:57:00,
2013-05-27 08:13:00,54.9,43.0,30.13,NW,304,1.0,3.0,64,0.00,,,0.00,weatherlink.com 1.10,2013-05-27 12:13:00,
2013-05-27 08:28:00,56.7,44.0,30.13,WNW,302,1.0,3.0,62,0.00,,,0.00,weatherlink.com 1.10,2013-05-27 12:28:00,
2013-05-27 08:43:00,58.7,45.0,30.13,NW,305,1.0,3.0,60,0.00,,,0.00,weatherlink.com 1.10,2013-05-27 12:43:00,
2013-05-27 08:58:00,60.1,45.0,30.14,WNW,289,0.0,2.0,58,0.00,,,0.00,weatherlink.com 1.10,2013-05-27 12:58:00,
2013-05-27 09:13:00,61.4,45.0,30.14,SW,228,0.0,1.0,55,0.00,,,0.00,weatherlink.com 1.10,2013-05-27 13:13:00,
2013-05-27 09:28:00,62.7,46.0,30.14,WNW,293,2.0,4.0,55,0.00,,,0.00,weatherlink.com 1.10,2013-05-27 13:28:00,
2013-05-27 09:43:00,63.5,45.0,30.14,WNW,287,2.0,2.0,51,0.00,,,0.00,weatherlink.com 1.10,2013-05-27 13:43:00,
2013-05-27 09:58:00,64.2,44.0,30.14,WNW,293,0.0,3.0,48,0.00,,,0.00,weatherlink.com 1.10,2013-05-27 13:58:00,
2013-05-27 10:13:00,65.2,43.0,30.13,NW,311,0.0,3.0,45,0.00,,,0.00,weatherlink.com 1.10,2013-05-27 14:13:00,
2013-05-27 10:28:00,66.0,43.0,30.14,WNW,300,2.0,4.0,44,0.00,,,0.00,weatherlink.com 1.10,2013-05-27 14:28:00,
2013-05-27 10:43:00,66.6,44.0,30.13,NW,318,1.0,3.0,44,0.00,,,0.00,weatherlink.com 1.10,2013-05-27 14:43:00,
2013-05-27 10:58:00,67.2,39.0,30.12,WNW,290,1.0,6.0,35,0.00,,,0.00,weatherlink.com 1.10,2013-05-27 14:58:00,
2013-05-27 11:13:00,68.1,42.0,30.12,NW,314,1.0,5.0,39,0.00,,,0.00,weatherlink.com 1.10,2013-05-27 15:13:00,
2013-05-27 11:28:00,68.3,43.0,30.12,WNW,287,0.0,6.0,40,0.00,,,0.00,weatherlink.com 1.10,2013-05-27 15:28:00,
2013-05-27 11:43:00,68.7,38.0,30.12,NW,311,1.0,9.0,32,0.00,,,0.00,weatherlink.com 1.10,2013-05-27 15:43:00,
2013-05-27 11:58:00,68.7,40.0,30.11,WNW,287,1.0,6.0,35,0.00,,,0.00,weatherlink.com 1.10,2013-05-27 15:58:00,
2013-05-27 12:13:00,69.7,41.0,30.11,NW,314,1.0,3.0,35,0.00,,,0.00,weatherlink.com 1.10,2013-05-27 16:13:00,
2013-05-27 12:28:00,69.9,39.0,30.11,WNW,300,1.0,3.0,33,0.00,,,0.00,weatherlink.com 1.10,2013-05-27 16:28:00,
2013-05-27 12:43:00,70.0,40.0,30.10,WNW,295,0.0,5.0,33,0.00,,,0.00,weatherlink.com 1.10,2013-05-27 16:43:00,
2013-05-27 12:58:00,70.5,44.0,30.10,WNW,288,0.0,3.0,39,0.00,,,0.00,weatherlink.com 1.10,2013-05-27 16:58:00,
2013-05-27 13:13:00,70.8,43.0,30.09,NW,307,1.0,4.0,37,0.00,,,0.00,weatherlink.com 1.10,2013-05-27 17:13:00,
2013-05-27 13:28:00,70.9,45.0,30.09,NNW,332,1.0,6.0,40,0.00,,,0.00,weatherlink.com 1.10,2013-05-27 17:28:00,
2013-05-27 13:44:00,71.4,42.0,30.09,NNW,338,0.0,3.0,35,0.00,,,0.00,weatherlink.com 1.10,2013-05-27 17:44:00,
2013-05-27 13:59:00,71.3,41.0,30.09,WNW,293,1.0,3.0,33,0.00,,,0.00,weatherlink.com 1.10,2013-05-27 17:59:00,
2013-05-27 14:14:00,72.1,44.0,30.09,WNW,298,0.0,2.0,36,0.00,,,0.00,weatherlink.com 1.10,2013-05-27 18:14:00,
2013-05-27 14:29:00,72.3,42.0,30.08,West,274,1.0,2.0,34,0.00,,,0.00,weatherlink.com 1.10,2013-05-27 18:29:00,
2013-05-27 14:44:00,72.0,44.0,30.08,WNW,292,3.0,4.0,37,0.00,,,0.00,weatherlink.com 1.10,2013-05-27 18:44:00,
2013-05-27 14:59:00,72.0,41.0,30.07,WNW,290,0.0,2.0,33,0.00,,,0.00,weatherlink.com 1.10,2013-05-27 18:59:00,
2013-05-27 15:14:00,72.7,44.0,30.07,WSW,252,0.0,4.0,36,0.00,,,0.00,weatherlink.com 1.10,2013-05-27 19:14:00,
2013-05-27 15:29:00,71.7,39.0,30.07,NW,309,0.0,4.0,31,0.00,,,0.00,weatherlink.com 1.10,2013-05-27 19:29:00,
2013-05-27 15:44:00,71.8,42.0,30.07,WNW,290,0.0,2.0,34,0.00,,,0.00,weatherlink.com 1.10,2013-05-27 19:44:00,
2013-05-27 15:59:00,71.8,43.0,30.07,SW,229,0.0,5.0,35,0.00,,,0.00,weatherlink.com 1.10,2013-05-27 19:59:00,
2013-05-27 16:14:00,71.2,40.0,30.07,WSW,245,1.0,3.0,32,0.00,,,0.00,weatherlink.com 1.10,2013-05-27 20:14:00,
2013-05-27 16:29:00,71.0,43.0,30.07,NNE,15,0.0,5.0,36,0.00,,,0.00,weatherlink.com 1.10,2013-05-27 20:29:00,
2013-05-27 16:44:00,71.2,43.0,30.06,WNW,293,0.0,3.0,36,0.00,,,0.00,weatherlink.com 1.10,2013-05-27 20:44:00,
2013-05-27 16:59:00,70.9,43.0,30.07,WNW,283,2.0,6.0,36,0.00,,,0.00,weatherlink.com 1.10,2013-05-27 20:59:00,
2013-05-27 17:14:00,70.9,43.0,30.06,NW,312,0.0,3.0,37,0.00,,,0.00,weatherlink.com 1.10,2013-05-27 21:14:00,
2013-05-27 17:29:00,70.6,41.0,30.07,NNW,336,0.0,1.0,34,0.00,,,0.00,weatherlink.com 1.10,2013-05-27 21:29:00,
2013-05-27 17:44:00,70.8,40.0,30.07,WNW,287,0.0,2.0,33,0.00,,,0.00,weatherlink.com 1.10,2013-05-27 21:44:00,
2013-05-27 17:59:00,70.9,41.0,30.07,NW,305,1.0,4.0,34,0.00,,,0.00,weatherlink.com 1.10,2013-05-27 21:59:00,
2013-05-27 18:14:00,70.3,41.0,30.07,WNW,289,0.0,4.0,34,0.00,,,0.00,weatherlink.com 1.10,2013-05-27 22:14:00,
2013-05-27 18:29:00,70.2,41.0,30.07,WNW,293,0.0,2.0,35,0.00,,,0.00,weatherlink.com 1.10,2013-05-27 22:29:00,
2013-05-27 18:44:00,68.7,44.0,30.07,SSE,155,0.0,1.0,41,0.00,,,0.00,weatherlink.com 1.10,2013-05-27 22:44:00,
2013-05-27 18:59:00,67.5,43.0,30.07,SSE,156,0.0,1.0,42,0.00,,,0.00,weatherlink.com 1.10,2013-05-27 22:59:00,
2013-05-27 19:14:00,66.4,43.0,30.08,SSE,157,0.0,0.0,43,0.00,,,0.00,weatherlink.com 1.10,2013-05-27 23:14:00,
2013-05-27 19:29:00,65.3,44.0,30.08,SSE,157,0.0,0.0,46,0.00,,,0.00,weatherlink.com 1.10,2013-05-27 23:29:00,
2013-05-27 19:44:00,63.7,45.0,30.09,SSE,156,0.0,0.0,51,0.00,,,0.00,weatherlink.com 1.10,2013-05-27 23:44:00,
2013-05-27 19:59:00,62.0,45.0,30.09,SSE,156,0.0,0.0,54,0.00,,,0.00,weatherlink.com 1.10,2013-05-27 23:59:00,
2013-05-27 20:14:00,60.4,43.0,30.09,SSE,157,0.0,0.0,54,0.00,,,0.00,weatherlink.com 1.10,2013-05-28 00:14:00,
2013-05-27 20:29:00,59.1,45.0,30.10,SSE,156,0.0,0.0,59,0.00,,,0.00,weatherlink.com 1.10,2013-05-28 00:29:00,
2013-05-27 20:44:00,57.7,45.0,30.10,SSE,157,0.0,0.0,63,0.00,,,0.00,weatherlink.com 1.10,2013-05-28 00:44:00,
2013-05-27 20:59:00,56.3,45.0,30.10,SSE,156,0.0,0.0,66,0.00,,,0.00,weatherlink.com 1.10,2013-05-28 00:59:00,
2013-05-27 21:14:00,55.3,46.0,30.11,SSE,156,0.0,0.0,71,0.00,,,0.00,weatherlink.com 1.10,2013-05-28 01:14:00,
2013-05-27 21:30:00,54.3,46.0,30.12,SSE,156,0.0,0.0,73,0.00,,,0.00,weatherlink.com 1.10,2013-05-28 01:30:00,
2013-05-27 21:44:00,53.6,46.0,30.12,SSE,158,0.0,1.0,74,0.00,,,0.00,weatherlink.com 1.10,2013-05-28 01:44:00,
2013-05-27 21:59:00,53.5,45.0,30.13,SSE,156,0.0,0.0,74,0.00,,,0.00,weatherlink.com 1.10,2013-05-28 01:59:00,
2013-05-27 22:14:00,53.7,46.0,30.13,SSE,158,0.0,0.0,74,0.00,,,0.00,weatherlink.com 1.10,2013-05-28 02:14:00,
2013-05-27 22:30:00,53.2,46.0,30.14,SSE,158,0.0,0.0,76,0.00,,,0.00,weatherlink.com 1.10,2013-05-28 02:30:00,
2013-05-27 22:44:00,52.6,46.0,30.14,SSE,158,0.0,0.0,77,0.00,,,0.00,weatherlink.com 1.10,2013-05-28 02:44:00,
2013-05-27 22:59:00,52.3,46.0,30.14,SSE,158,0.0,0.0,80,0.00,,,0.00,weatherlink.com 1.10,2013-05-28 02:59:00,
2013-05-27 23:14:00,51.8,46.0,30.14,SSE,158,0.0,0.0,80,0.00,,,0.00,weatherlink.com 1.10,2013-05-28 03:14:00,
2013-05-27 23:29:00,51.4,46.0,30.15,SSE,158,0.0,0.0,82,0.00,,,0.00,weatherlink.com 1.10,2013-05-28 03:29:00,
2013-05-27 23:45:00,51.1,46.0,30.15,SSE,158,0.0,0.0,82,0.00,,,0.00,weatherlink.com 1.10,2013-05-28 03:45:00,
2013-05-27 23:59:00,50.4,45.0,30.15,SSE,158,0.0,0.0,83,0.00,,,0.00,weatherlink.com 1.10,2013-05-28 03:59:00,